When you browse on this site, cookies collect data to enhance your experience and personalize the content and advertising you see.
Visit our Privacy Policy to learn more. By continuing to use the site, you agree to this use of cookies and data.
  • Em Portugal
  • Lista de países
  • Para 7 dias
  • Temperatura da água
  • Mapas de satélite
  • Mapa do tempo
  • Widgets de tempo
  • user-avatar
    Iniciar Sessão

    Previsão horária em Parakou

    Hoje, 16 Fevereiro, Sábado

    Tempo Temperatura Precipitação Vento Pressão Humidade
    00:00 +27°C° 0 mm 2 m/s 729 mmHg 13%
    01:00 +27°C° 0 mm 2 m/s 729 mmHg 13%
    02:00 +26°C° 0 mm 2 m/s 728 mmHg 13%
    03:00 +25°C° 0 mm 2 m/s 728 mmHg 14%
    04:00 +25°C° 0 mm 2 m/s 728 mmHg 14%
    05:00 +24°C° 0 mm 2 m/s 728 mmHg 15%
    06:00 +24°C° 0 mm 2 m/s 728 mmHg 15%
    07:00 +26°C° 0 mm 2 m/s 729 mmHg 14%
    08:00 +28°C° 0 mm 3 m/s 730 mmHg 13%
    09:00 +30°C° 0 mm 3 m/s 730 mmHg 12%
    10:00 +34°C° 0 mm 3 m/s 730 mmHg 11%
    11:00 +37°C° 0 mm 2 m/s 729 mmHg 9%
    12:00 +39°C° 0 mm 2 m/s 729 mmHg 8%
    13:00 +40°C° 0 mm 2 m/s 728 mmHg 7%
    14:00 +41°C° 0 mm 1 m/s 727 mmHg 7%
    15:00 +42°C° 0 mm 1 m/s 727 mmHg 6%
    16:00 +40°C° 0 mm 1 m/s 727 mmHg 7%
    17:00 +37°C° 0 mm 1 m/s 726 mmHg 8%
    18:00 +35°C° 0 mm 1 m/s 726 mmHg 9%
    19:00 +34°C° 0 mm 1 m/s 727 mmHg 10%
    20:00 +32°C° 0 mm 2 m/s 727 mmHg 10%
    21:00 +31°C° 0 mm 2 m/s 728 mmHg 11%
    22:00 +30°C° 0 mm 2 m/s 728 mmHg 12%
    23:00 +29°C° 0 mm 2 m/s 728 mmHg 12%

    Amanhã, 17 Fevereiro, Domingo

    Tempo Temperatura Precipitação Vento Pressão Humidade
    00:00 +28°C° 0 mm 2 m/s 728 mmHg 12%
    01:00 +28°C° 0 mm 2 m/s 728 mmHg 13%
    02:00 +27°C° 0 mm 1 m/s 728 mmHg 13%
    03:00 +26°C° 0 mm 1 m/s 727 mmHg 14%
    04:00 +26°C° 0 mm 1 m/s 728 mmHg 17%
    05:00 +25°C° 0 mm 1 m/s 728 mmHg 21%
    06:00 +24°C° 0 mm 1 m/s 728 mmHg 25%
    07:00 +27°C° 0 mm 1 m/s 729 mmHg 22%
    08:00 +30°C° 0 mm 1 m/s 729 mmHg 20%
    09:00 +32°C° 0 mm 1 m/s 730 mmHg 17%
    10:00 +35°C° 0 mm 1 m/s 730 mmHg 14%
    11:00 +39°C° 0 mm 1 m/s 729 mmHg 11%
    12:00 +41°C° 0 mm 1 m/s 729 mmHg 8%
    13:00 +42°C° 0 mm 1 m/s 728 mmHg 7%
    14:00 +40°C° 0 mm 0 m/s 727 mmHg 7%
    15:00 +41°C° 0 mm 0 m/s 726 mmHg 6%
    16:00 +38°C° 0 mm 0 m/s 726 mmHg 7%
    17:00 +36°C° 0 mm 0 m/s 726 mmHg 8%
    18:00 +33°C° 0 mm 0 m/s 726 mmHg 9%
    19:00 +32°C° 0 mm 0 m/s 726 mmHg 10%
    20:00 +33°C° 0 mm 1 m/s 727 mmHg 10%
    21:00 +32°C° 0 mm 1 m/s 728 mmHg 11%
    22:00 +32°C° 0 mm 1 m/s 728 mmHg 11%
    23:00 +31°C° 0 mm 1 m/s 727 mmHg 11%

    Depois de amanhã, 18 Fevereiro, Segunda-feira

    Tempo Temperatura Precipitação Vento Pressão Humidade
    00:00 +30°C° 0 mm 1 m/s 727 mmHg 12%
    01:00 +29°C° 0 mm 1 m/s 727 mmHg 12%
    02:00 +28°C° 0 mm 1 m/s 726 mmHg 12%
    03:00 +28°C° 0 mm 1 m/s 726 mmHg 13%
    04:00 +27°C° 0 mm 1 m/s 726 mmHg 19%
    05:00 +25°C° 0 mm 0 m/s 726 mmHg 26%
    06:00 +24°C° 0 mm 0 m/s 727 mmHg 32%
    07:00 +26°C° 0 mm 0 m/s 727 mmHg 35%
    08:00 +31°C° 0 mm 1 m/s 728 mmHg 38%
    09:00 +33°C° 0 mm 1 m/s 728 mmHg 41%
    10:00 +36°C° 0 mm 1 m/s 728 mmHg 34%
    11:00 +40°C° 0 mm 1 m/s 728 mmHg 26%
    12:00 +42°C° 0 mm 1 m/s 727 mmHg 18%
    13:00 +42°C° 0 mm 1 m/s 726 mmHg 16%
    14:00 +43°C° 0 mm 1 m/s 725 mmHg 14%
    15:00 +43°C° 0 mm 1 m/s 724 mmHg 12%
    16:00 +41°C° 0 mm 1 m/s 724 mmHg 12%
    17:00 +39°C° 0 mm 1 m/s 724 mmHg 13%
    18:00 +37°C° 0 mm 1 m/s 724 mmHg 13%
    19:00 +36°C° 0 mm 1 m/s 725 mmHg 12%
    20:00 +34°C° 0 mm 1 m/s 725 mmHg 11%
    21:00 +34°C° 0 mm 2 m/s 726 mmHg 10%
    22:00 +32°C° 0 mm 1 m/s 726 mmHg 10%
    23:00 +31°C° 0 mm 1 m/s 726 mmHg 9%

    19 Fevereiro, Terça-feira

    Tempo Temperatura Precipitação Vento Pressão Humidade
    00:00 +30°C° 0 mm 1 m/s 726 mmHg 9%
    01:00 +30°C° 0 mm 1 m/s 726 mmHg 19%
    02:00 +29°C° 0 mm 1 m/s 725 mmHg 29%
    03:00 +28°C° 0 mm 2 m/s 725 mmHg 38%
    04:00 +28°C° 0 mm 1 m/s 725 mmHg 51%
    05:00 +27°C° 0 mm 1 m/s 726 mmHg 64%
    06:00 +27°C° 0 mm 1 m/s 726 mmHg 76%
    07:00 +29°C° 0 mm 1 m/s 727 mmHg 68%
    08:00 +31°C° 0 mm 1 m/s 727 mmHg 60%
    09:00 +34°C° 0 mm 2 m/s 728 mmHg 52%
    10:00 +35°C° 0 mm 1 m/s 727 mmHg 41%
    11:00 +39°C° 0 mm 1 m/s 727 mmHg 30%
    12:00 +42°C° 0 mm 1 m/s 726 mmHg 19%
    13:00 +42°C° 0 mm 1 m/s 725 mmHg 17%
    14:00 +43°C° 0 mm 1 m/s 724 mmHg 14%
    15:00 +44°C° 0 mm 1 m/s 723 mmHg 12%
    16:00 +42°C° 0 mm 1 m/s 723 mmHg 13%
    17:00 +40°C° 0 mm 1 m/s 723 mmHg 14%
    18:00 +37°C° 0 mm 1 m/s 723 mmHg 14%
    19:00 +36°C° 0 mm 1 m/s 724 mmHg 15%
    20:00 +35°C° 0 mm 1 m/s 725 mmHg 16%
    21:00 +34°C° 0 mm 1 m/s 725 mmHg 17%
    22:00 +33°C° 0 mm 1 m/s 725 mmHg 17%
    23:00 +32°C° 0 mm 1 m/s 725 mmHg 16%

    20 Fevereiro, Quarta-feira

    Tempo Temperatura Precipitação Vento Pressão Humidade
    00:00 +32°C° 0 mm 1 m/s 725 mmHg 15%
    01:00 +31°C° 0 mm 2 m/s 725 mmHg 29%
    02:00 +30°C° 0 mm 2 m/s 725 mmHg 42%
    03:00 +30°C° 0 mm 3 m/s 725 mmHg 55%
    04:00 +29°C° 0 mm 2 m/s 725 mmHg 61%
    05:00 +29°C° 0 mm 2 m/s 725 mmHg 68%
    06:00 +28°C° 0 mm 2 m/s 726 mmHg 74%
    07:00 +29°C° 0 mm 2 m/s 727 mmHg 68%
    08:00 +31°C° 0 mm 2 m/s 727 mmHg 62%
    09:00 +33°C° 0 mm 3 m/s 728 mmHg 56%
    10:00 +36°C° 0 mm 2 m/s 727 mmHg 47%
    11:00 +38°C° 0 mm 2 m/s 727 mmHg 37%
    12:00 +40°C° 0 mm 2 m/s 726 mmHg 28%
    13:00 +41°C° 0 mm 2 m/s 726 mmHg 25%
    14:00 +42°C° 0 mm 1 m/s 725 mmHg 22%
    15:00 +43°C° 0 mm 1 m/s 724 mmHg 18%
    16:00 +42°C° 0 mm 1 m/s 725 mmHg 21%
    17:00 +40°C° 0 mm 1 m/s 725 mmHg 24%
    18:00 +38°C° 0 mm 2 m/s 725 mmHg 27%
    19:00 +37°C° 0 mm 2 m/s 725 mmHg 29%
    20:00 +36°C° 0 mm 2 m/s 726 mmHg 32%
    21:00 +35°C° 0 mm 2 m/s 726 mmHg 34%
    22:00 +35°C° 0.1 mm 2 m/s 726 mmHg 35%
    23:00 +34°C° 0.1 mm 1 m/s 726 mmHg 36%

    21 Fevereiro, Quinta-feira

    Tempo Temperatura Precipitação Vento Pressão Humidade
    00:00 +33°C° 0.1 mm 1 m/s 726 mmHg 37%
    01:00 +32°C° 1 mm 1 m/s 726 mmHg 45%
    02:00 +31°C° 1 mm 2 m/s 726 mmHg 53%
    03:00 +29°C° 1 mm 2 m/s 725 mmHg 62%
    04:00 +29°C° 0 mm 2 m/s 726 mmHg 67%
    05:00 +28°C° 0 mm 2 m/s 726 mmHg 72%
    06:00 +28°C° 0 mm 2 m/s 727 mmHg 77%
    07:00 +29°C° 0 mm 2 m/s 727 mmHg 71%
    08:00 +31°C° 0 mm 2 m/s 728 mmHg 65%
    09:00 +32°C° 0 mm 2 m/s 728 mmHg 59%
    10:00 +35°C° 0 mm 2 m/s 728 mmHg 49%
    11:00 +38°C° 0 mm 2 m/s 727 mmHg 40%
    12:00 +40°C° 0 mm 2 m/s 727 mmHg 30%
    13:00 +41°C° 0 mm 1 m/s 726 mmHg 27%
    14:00 +42°C° 0 mm 1 m/s 725 mmHg 23%
    15:00 +40°C° 0 mm 0 m/s 725 mmHg 20%
    16:00 +39°C° 0 mm 0 m/s 725 mmHg 21%
    17:00 +40°C° 0 mm 1 m/s 725 mmHg 23%
    18:00 +39°C° 0 mm 1 m/s 725 mmHg 25%
    19:00 +37°C° 0 mm 1 m/s 726 mmHg 26%
    20:00 +36°C° 0 mm 1 m/s 726 mmHg 28%
    21:00 +35°C° 0 mm 1 m/s 727 mmHg 29%
    22:00 +34°C° 0 mm 1 m/s 727 mmHg 31%
    23:00 +34°C° 0 mm 1 m/s 727 mmHg 33%
    Mostrar mais